Weather History for Starkville, MS

Change the Weather History Date:

Saturday, March 9, 2013

  Actual Average Record
Temperature  
Mean Temperature 56 °F -  
Max Temperature 71 °F 64 °F 71 °F (2013)
Min Temperature 41 °F 40 °F 37 °F (2012)
Degree Days  
Heating Degree Days 9    
Growing Degree Days 6 (Base 50)    
Moisture  
Dew Point 35 °F    
Average Humidity 45    
Maximum Humidity 81    
Minimum Humidity 23    
Precipitation  
Precipitation 0.00 in - - ()
Sea Level Pressure  
Sea Level Pressure 30.11 in    
Wind  
Wind Speed 6 mph (SE)    
Max Wind Speed 17 mph    
Max Gust Speed 23 mph    
Visibility 10 miles    
Events      
Averages and records for this station are not official NWS values.
T = Trace of Precipitation, MM = Missing Value Source: NWS Daily Summary

Daily Weather History Graph

Daily Weather History Graph

Search for Another Location

Airport:

Trip Planner

Search our weather history database for the weather conditions in past years. The results will help you decide how hot, cold, wet, or windy it might be!

Date:

Astronomy

Mar. 09, 2013 Rise Set
Actual Time 6:13 AM CST 5:58 PM CST
Civil Twilight 5:48 AM CST 6:23 PM CST
Nautical Twilight 5:19 AM CST 6:52 PM CST
Astronomical Twilight 4:50 AM CST 7:21 PM CST
Moon 4:32 AM CST (3/9) 4:04 PM CST (3/9)
Length of Visible Light 12h 35m
Length of Day
11h 45m
Waning Crescent, 5% of the Moon is Illuminated
Mar 9
Waning Crescent
Mar 11
New
Mar 19
First Quarter
Mar 27
Full
Apr 2
Last Quarter

Hourly Weather History & Observations

Time (CST) Temp. Windchill Dew Point Humidity Pressure Visibility Wind Dir Wind Speed Gust Speed Precip Events Conditions
12:15 AM 41.0 °F - 35.6 °F 81% 30.19 in 10.0 mi Calm Calm - N/A   Clear
12:35 AM 42.8 °F - 35.6 °F 76% 30.19 in 10.0 mi Calm Calm - N/A   Clear
12:55 AM 42.8 °F 39.3 °F 35.6 °F 76% 30.18 in 10.0 mi East 5.8 mph - N/A   Clear
1:15 AM 44.6 °F 41.4 °F 33.8 °F 66% 30.18 in 10.0 mi East 5.8 mph - N/A   Clear
1:35 AM 46.4 °F 44.3 °F 33.8 °F 62% 30.17 in 10.0 mi East 4.6 mph - N/A   Clear
1:55 AM 46.4 °F 45.2 °F 33.8 °F 62% 30.17 in 10.0 mi East 3.5 mph - N/A   Clear
2:15 AM 44.6 °F - 37.4 °F 76% 30.17 in 10.0 mi Calm Calm - N/A   Clear
2:35 AM 44.6 °F - 35.6 °F 71% 30.15 in 10.0 mi Calm Calm - N/A   Clear
2:55 AM 44.6 °F - 35.6 °F 71% 30.16 in 10.0 mi Calm Calm - N/A   Clear
3:15 AM 44.6 °F - 37.4 °F 76% 30.16 in 10.0 mi Calm Calm - N/A   Clear
3:35 AM 44.6 °F - 37.4 °F 76% 30.16 in 10.0 mi Calm Calm - N/A   Clear
3:55 AM 44.6 °F - 39.2 °F 81% 30.16 in 10.0 mi Calm Calm - N/A   Clear
4:15 AM 44.6 °F - 37.4 °F 76% 30.17 in 10.0 mi Calm Calm - N/A   Clear
4:35 AM 44.6 °F 42.2 °F 37.4 °F 76% 30.17 in 10.0 mi ESE 4.6 mph - N/A   Clear
4:55 AM 48.2 °F - 32.0 °F 54% 30.16 in 10.0 mi ESE 8.1 mph - N/A   Clear
5:15 AM 48.2 °F - 32.0 °F 54% 30.15 in 10.0 mi ESE 8.1 mph - N/A   Clear
5:35 AM 48.2 °F - 32.0 °F 54% 30.16 in 10.0 mi East 6.9 mph - N/A   Clear
5:55 AM 48.2 °F - 32.0 °F 54% 30.15 in 10.0 mi ESE 8.1 mph - N/A   Clear
6:15 AM 50.0 °F - 32.0 °F 50% 30.17 in 10.0 mi SE 3.5 mph - N/A   Clear
6:35 AM 50.0 °F - 32.0 °F 50% 30.17 in 10.0 mi SE 4.6 mph - N/A   Clear
6:55 AM 50.0 °F - 32.0 °F 50% 30.17 in 10.0 mi SE 10.4 mph - N/A   Clear
7:15 AM 50.0 °F - 32.0 °F 50% 30.20 in 10.0 mi SW 4.6 mph - N/A   Clear
7:35 AM 50.0 °F - 32.0 °F 50% 30.21 in 10.0 mi Calm Calm - N/A   Clear
7:55 AM 50.0 °F - 32.0 °F 50% 30.22 in 10.0 mi SSE 3.5 mph - N/A   Clear
8:15 AM 51.8 °F - 33.8 °F 50% 30.22 in 10.0 mi Calm Calm - N/A   Clear
8:35 AM 53.6 °F - 33.8 °F 47% 30.22 in 10.0 mi SSE 4.6 mph - N/A   Clear
9:15 AM 53.6 °F - 33.8 °F 47% 30.20 in 10.0 mi ESE 6.9 mph - N/A   Clear
9:35 AM 55.4 °F - 32.0 °F 41% 30.20 in 10.0 mi ESE 6.9 mph - N/A   Scattered Clouds
9:55 AM 57.2 °F - 33.8 °F 41% 30.20 in 10.0 mi ESE 9.2 mph - N/A   Scattered Clouds
10:15 AM 59.0 °F - 32.0 °F 36% 30.20 in 7.0 mi SSE 6.9 mph - N/A   Clear
10:35 AM 60.8 °F - 33.8 °F 36% 30.20 in 10.0 mi SE 9.2 mph - N/A   Clear
10:55 AM 62.6 °F - 33.8 °F 34% 30.17 in 10.0 mi SE 8.1 mph - N/A   Clear
11:15 AM 62.6 °F - 33.8 °F 34% 30.17 in 10.0 mi South 9.2 mph - N/A   Clear
11:35 AM 62.6 °F - 33.8 °F 34% 30.17 in 10.0 mi SSE 5.8 mph - N/A   Clear
11:55 AM 62.6 °F - 33.8 °F 34% 30.16 in 10.0 mi SE 3.5 mph - N/A   Clear
12:15 PM 64.4 °F - 35.6 °F 34% 30.14 in 10.0 mi SSE 6.9 mph - N/A   Clear
12:35 PM 68.0 °F - 33.8 °F 28% 30.12 in 10.0 mi SE 11.5 mph - N/A   Clear
12:55 PM 69.8 °F - 35.6 °F 28% 30.11 in 10.0 mi SSE 13.8 mph 18.4 mph N/A   Clear
1:15 PM 68.0 °F - 33.8 °F 28% 30.10 in 10.0 mi SSE 10.4 mph 20.7 mph N/A   Clear
1:35 PM 68.0 °F - 35.6 °F 30% 30.10 in 10.0 mi SSE 13.8 mph 17.3 mph N/A   Clear
1:55 PM 68.0 °F - 35.6 °F 30% 30.09 in 10.0 mi SE 12.7 mph - N/A   Clear
2:15 PM 69.8 °F - 35.6 °F 28% 30.08 in 10.0 mi SE 10.4 mph 18.4 mph N/A   Clear
2:35 PM 69.8 °F - 35.6 °F 28% 30.07 in 10.0 mi SE 10.4 mph 18.4 mph N/A   Clear
2:55 PM 71.6 °F - 35.6 °F 27% 30.06 in 10.0 mi SE 10.4 mph 16.1 mph N/A   Clear
3:15 PM 71.6 °F - 35.6 °F 27% 30.05 in 10.0 mi SE 12.7 mph - N/A   Clear
3:35 PM 71.6 °F - 32.0 °F 23% 30.05 in 10.0 mi South 13.8 mph 20.7 mph N/A   Clear
3:55 PM 69.8 °F - 32.0 °F 25% 30.05 in 10.0 mi SSE 13.8 mph 19.6 mph N/A   Clear
4:15 PM 69.8 °F - 32.0 °F 25% 30.03 in 10.0 mi SE 13.8 mph - N/A   Clear
4:35 PM 69.8 °F - 33.8 °F 27% 30.03 in 10.0 mi SSE 9.2 mph - N/A   Clear
4:55 PM 69.8 °F - 32.0 °F 25% 30.04 in 10.0 mi SSE 16.1 mph 23.0 mph N/A   Clear
5:15 PM 68.0 °F - 32.0 °F 26% 30.04 in 10.0 mi SSE 11.5 mph 17.3 mph N/A   Clear
5:35 PM 68.0 °F - 32.0 °F 26% 30.04 in 10.0 mi SSE 12.7 mph 18.4 mph N/A   Clear
5:55 PM 66.2 °F - 33.8 °F 30% 30.04 in 10.0 mi SSE 8.1 mph - N/A   Clear
6:15 PM 64.4 °F - 33.8 °F 32% 30.03 in 10.0 mi SSE 5.8 mph - N/A   Clear
6:35 PM 62.6 °F - 33.8 °F 34% 30.03 in 10.0 mi SSE 4.6 mph - N/A   Clear
6:55 PM 62.6 °F - 35.6 °F 37% 30.03 in 10.0 mi SE 4.6 mph - N/A   Clear
7:15 PM 62.6 °F - 35.6 °F 37% 30.03 in 10.0 mi SE 6.9 mph - N/A   Clear
7:35 PM 64.4 °F - 33.8 °F 32% 30.03 in 10.0 mi SE 9.2 mph - N/A   Clear
7:55 PM 64.4 °F - 33.8 °F 32% 30.02 in 10.0 mi SE 9.2 mph - N/A   Clear
8:15 PM 64.4 °F - 35.6 °F 34% 30.02 in 10.0 mi SSE 12.7 mph - N/A   Clear
8:35 PM 64.4 °F - 35.6 °F 34% 30.03 in 10.0 mi SSE 10.4 mph - N/A   Clear
8:55 PM 64.4 °F - 37.4 °F 37% 30.02 in 10.0 mi SSE 12.7 mph 19.6 mph N/A   Clear
9:15 PM 64.4 °F - 37.4 °F 37% 30.02 in 10.0 mi SSE 15.0 mph 19.6 mph N/A   Clear
9:35 PM 62.6 °F - 37.4 °F 39% 30.02 in 10.0 mi SSE 10.4 mph 20.7 mph N/A   Clear
9:55 PM 62.6 °F - 39.2 °F 42% 30.02 in 10.0 mi SSE 12.7 mph 18.4 mph N/A   Clear
10:15 PM 62.6 °F - 41.0 °F 45% 30.02 in 10.0 mi SSE 11.5 mph - N/A   Clear
10:35 PM 62.6 °F - 41.0 °F 45% 30.01 in 10.0 mi SSE 17.3 mph 23.0 mph N/A   Clear
10:55 PM 62.6 °F - 41.0 °F 45% 30.01 in 10.0 mi SSE 15.0 mph 19.6 mph N/A   Clear
11:15 PM 60.8 °F - 41.0 °F 48% 30.02 in 10.0 mi SSE 10.4 mph - N/A   Clear
11:35 PM 60.8 °F - 42.8 °F 52% 30.01 in 10.0 mi SSE 10.4 mph 17.3 mph N/A   Clear
11:55 PM 60.8 °F - 42.8 °F 52% 29.99 in 10.0 mi SSE 11.5 mph 19.6 mph N/A   Clear